Change the Weather History Date:

Monday, November 28, 2011

  Actual Average Record
Temperature  
Mean Temperature 40 °F -  
Max Temperature 55 °F 32 °F 59 °F (2002)
Min Temperature 21 °F 12 °F -15 °F (1964)
Degree Days  
Heating Degree Days 26    
Moisture  
Dew Point 23 °F    
Average Humidity 49    
Maximum Humidity 75    
Minimum Humidity 26    
Precipitation  
Precipitation 0.00 in - - ()
Sea Level Pressure  
Sea Level Pressure 30.15 in    
Wind  
Wind Speed 12 mph (NW)    
Max Wind Speed 21 mph    
Max Gust Speed 28 mph    
Visibility 10 miles    
Events      
Averages and records for this station are not official NWS values.
T = Trace of Precipitation, MM = Missing Value Source: NWS Daily Summary

Daily Weather History Graph

Daily Weather History Graph

Search for Another Location

Airport or City:

Trip Planner

Search our weather history database for the weather conditions in past years. The results will help you decide how hot, cold, wet, or windy it might be!

Date:

Astronomy

Nov. 28, 2011 Rise Set
Actual Time 7:20 AM MST 4:08 PM MST
Civil Twilight 6:45 AM MST 4:43 PM MST
Nautical Twilight 6:06 AM MST 5:22 PM MST
Astronomical Twilight 5:29 AM MST 5:59 PM MST
Moon 10:29 AM MST (11/28) 8:02 PM MST (11/28)
Length of Visible Light 9h 58m
Length of Day
8h 48m
Waxing Crescent, 16% of the Moon is Illuminated
Nov 28
Waxing Crescent
Dec 2
First Quarter
Dec 10
Full
Dec 17
Last Quarter
Dec 24
New

Hourly Weather History & Observations

Time (MST) Temp. Windchill Dew Point Humidity Pressure Visibility Wind Dir Wind Speed Gust Speed Precip Events Conditions
12:15 AM 39.2 °F 35.9 °F 21.2 °F 49% 29.81 in 10.0 mi South 4.6 mph - N/A   Clear
12:35 AM 39.2 °F 33.6 °F 23.0 °F 52% 29.82 in 10.0 mi SSW 8.1 mph - N/A   Clear
12:55 AM 39.2 °F 35.0 °F 23.0 °F 52% 29.83 in 10.0 mi South 5.8 mph - N/A   Clear
1:15 AM 50.0 °F - 26.6 °F 40% 29.82 in 10.0 mi West 15.0 mph 20.7 mph N/A   Clear
1:35 AM 53.6 °F - 21.2 °F 28% 29.82 in 10.0 mi West 17.3 mph 24.2 mph N/A   Clear
1:55 AM 53.6 °F - 21.2 °F 28% 29.84 in 10.0 mi West 15.0 mph 20.7 mph N/A   Clear
2:15 AM 55.4 °F - 23.0 °F 29% 29.85 in 10.0 mi West 20.7 mph - N/A   Clear
2:35 AM 55.4 °F - 21.2 °F 26% 29.86 in 10.0 mi WNW 18.4 mph 24.2 mph N/A   Clear
2:55 AM 55.4 °F - 24.8 °F 31% 29.88 in 10.0 mi WNW 17.3 mph - N/A   Clear
3:15 AM 53.6 °F - 26.6 °F 35% 29.90 in 10.0 mi WNW 16.1 mph 25.3 mph N/A   Clear
3:35 AM 53.6 °F - 28.4 °F 38% 29.92 in 10.0 mi WNW 16.1 mph - N/A   Clear
3:55 AM 51.8 °F - 28.4 °F 41% 29.93 in 10.0 mi WNW 13.8 mph 23.0 mph N/A   Clear
4:15 AM 51.8 °F - 28.4 °F 41% 29.94 in 10.0 mi WNW 15.0 mph - N/A   Clear
4:35 AM 50.0 °F - 30.2 °F 47% 29.96 in 10.0 mi WNW 13.8 mph 19.6 mph N/A   Clear
4:55 AM 50.0 °F - 30.2 °F 47% 29.97 in 10.0 mi WNW 13.8 mph 20.7 mph N/A   Clear
5:15 AM 48.2 °F - 30.2 °F 50% 29.99 in 10.0 mi WNW 12.7 mph 17.3 mph N/A   Clear
5:35 AM 48.2 °F - 30.2 °F 50% 30.01 in 10.0 mi NW 13.8 mph 20.7 mph N/A   Clear
5:55 AM 46.4 °F 38.7 °F 30.2 °F 53% 30.04 in 10.0 mi NNW 20.7 mph 27.6 mph N/A   Clear
6:15 AM 42.8 °F 34.0 °F 28.4 °F 57% 30.06 in 10.0 mi NW 20.7 mph 25.3 mph N/A   Scattered Clouds
6:35 AM 41.0 °F 33.5 °F 28.4 °F 61% 30.07 in 10.0 mi NW 13.8 mph 23.0 mph N/A   Scattered Clouds
6:55 AM 39.2 °F 30.5 °F 28.4 °F 65% 30.08 in 10.0 mi NW 16.1 mph - N/A   Clear
7:35 AM 37.4 °F 30.8 °F 28.4 °F 70% 30.13 in 10.0 mi NNW 9.2 mph 17.3 mph N/A   Clear
7:55 AM 35.6 °F 29.2 °F 26.6 °F 70% 30.15 in 10.0 mi NW 8.1 mph - N/A   Clear
8:15 AM 35.6 °F 28.6 °F 28.4 °F 75% 30.16 in 10.0 mi NW 9.2 mph - N/A   Clear
8:35 AM 35.6 °F 28.0 °F 28.4 °F 75% 30.19 in 10.0 mi NW 10.4 mph - N/A   Clear
8:55 AM 37.4 °F 29.3 °F 28.4 °F 70% 30.20 in 10.0 mi NW 12.7 mph - N/A   Clear
9:15 AM 39.2 °F 30.5 °F 28.4 °F 65% 30.21 in 10.0 mi NW 16.1 mph 23.0 mph N/A   Clear
9:35 AM 39.2 °F 29.8 °F 28.4 °F 65% 30.22 in 10.0 mi NW 18.4 mph 24.2 mph N/A   Clear
9:55 AM 39.2 °F 29.8 °F 28.4 °F 65% 30.24 in 10.0 mi NW 18.4 mph 24.2 mph N/A   Clear
10:15 AM 41.0 °F 31.6 °F 28.4 °F 61% 30.25 in 10.0 mi NW 20.7 mph 26.5 mph N/A   Clear
10:55 AM 42.8 °F 34.8 °F 26.6 °F 53% 30.26 in 10.0 mi NW 17.3 mph 24.2 mph N/A   Clear
11:15 AM 42.8 °F 34.5 °F 26.6 °F 53% 30.27 in 10.0 mi NW 18.4 mph 23.0 mph N/A   Clear
11:35 AM 42.8 °F 34.8 °F 24.8 °F 49% 30.27 in 10.0 mi NNW 17.3 mph 20.7 mph N/A   Clear
12:15 PM 44.6 °F 37.4 °F 23.0 °F 43% 30.29 in 10.0 mi NW 16.1 mph 21.9 mph N/A   Partly Cloudy
12:35 PM 44.6 °F 37.2 °F 19.4 °F 37% 30.30 in 10.0 mi NNW 17.3 mph - N/A   Clear
12:55 PM 44.6 °F 37.2 °F 19.4 °F 37% 30.31 in 10.0 mi NW 17.3 mph - N/A   Partly Cloudy
1:15 PM 44.6 °F 37.8 °F 19.4 °F 37% 30.32 in 10.0 mi NW 15.0 mph 18.4 mph N/A   Mostly Cloudy
1:35 PM 44.6 °F 38.1 °F 19.4 °F 37% 30.32 in 10.0 mi NW 13.8 mph - N/A   Partly Cloudy
1:55 PM 44.6 °F 38.4 °F 17.6 °F 34% 30.32 in 10.0 mi NNW 12.7 mph 19.6 mph N/A   Mostly Cloudy
2:15 PM 44.6 °F 38.4 °F 17.6 °F 34% 30.31 in 10.0 mi NW 12.7 mph - N/A   Partly Cloudy
2:35 PM 44.6 °F 38.8 °F 17.6 °F 34% 30.32 in 10.0 mi NW 11.5 mph - N/A   Clear
2:55 PM 44.6 °F 39.7 °F 17.6 °F 34% 30.32 in 10.0 mi NW 9.2 mph - N/A   Clear
3:15 PM 42.8 °F 37.0 °F 15.8 °F 34% 30.32 in 10.0 mi NW 10.4 mph - N/A   Clear
3:35 PM 42.8 °F 38.0 °F 15.8 °F 34% 30.33 in 10.0 mi NW 8.1 mph - N/A   Clear
3:55 PM 37.4 °F - 15.8 °F 41% 30.34 in 10.0 mi Calm Calm - N/A   Clear
4:15 PM 37.4 °F - 15.8 °F 41% 30.35 in 6.0 mi Calm Calm - N/A   Clear
4:35 PM 32.0 °F - 14.0 °F 48% 30.36 in 10.0 mi Calm Calm - N/A   Clear
4:55 PM 33.8 °F - 15.8 °F 48% 30.36 in 10.0 mi Calm Calm - N/A   Clear
5:15 PM 30.2 °F - 14.0 °F 51% 30.35 in 8.0 mi Calm Calm - N/A   Clear
5:35 PM 26.6 °F 22.6 °F 15.8 °F 64% 30.35 in 10.0 mi NW 3.5 mph - N/A   Clear
6:15 PM 24.8 °F 20.5 °F 14.0 °F 64% 30.36 in 10.0 mi WNW 3.5 mph - N/A   Clear
6:35 PM 24.8 °F - 14.0 °F 64% 30.36 in 10.0 mi Calm Calm - N/A   Clear
7:15 PM 24.8 °F - 15.8 °F 69% 30.37 in 10.0 mi Calm Calm - N/A   Clear
7:35 PM 21.2 °F 12.6 °F 14.0 °F 74% 30.38 in 10.0 mi SSE 6.9 mph - N/A   Clear
7:55 PM 19.4 °F 14.3 °F 12.2 °F 74% 30.37 in 8.0 mi West 3.5 mph - N/A   Clear
8:15 PM 21.2 °F - 14.0 °F 74% 30.36 in 10.0 mi Calm Calm - N/A   Clear
8:35 PM 19.4 °F 14.3 °F 12.2 °F 74% 30.36 in 10.0 mi SSE 3.5 mph - N/A   Clear
8:55 PM 17.6 °F - 10.4 °F 73% 30.36 in 10.0 mi Calm Calm - N/A   Clear
9:16 PM 17.6 °F - 12.2 °F 79% 30.36 in 10.0 mi Calm Calm - N/A   Clear
9:35 PM 17.6 °F - 12.2 °F 79% 30.35 in 10.0 mi Calm Calm - N/A   Clear
10:15 PM 17.6 °F - 14.0 °F 86% 30.34 in 10.0 mi Calm Calm - N/A   Clear
10:55 PM 17.6 °F - 10.4 °F 73% 30.33 in 10.0 mi Calm Calm - N/A   Clear
11:15 PM 17.6 °F - 14.0 °F 86% 30.32 in 10.0 mi Calm Calm - N/A   Clear
11:35 PM 17.6 °F - 12.2 °F 79% 30.32 in 10.0 mi Calm Calm - N/A   Clear